EN

Hourly Weather Cerinza

Today, 25 January, Monday

Time Temperature Precipitation Wind Pressure Humidity
00:00 +9°C° 0 mm 1 mps 543 mmHg 94%
01:00 +9°C° 0 mm 1 mps 543 mmHg 93%
02:00 +9°C° 0 mm 1 mps 543 mmHg 93%
03:00 +9°C° 0 mm 1 mps 542 mmHg 94%
04:00 +9°C° 0 mm 1 mps 542 mmHg 94%
05:00 +9°C° 0 mm 1 mps 543 mmHg 93%
06:00 +10°C° 0 mm 1 mps 543 mmHg 93%
07:00 +9°C° 0 mm 2 mps 544 mmHg 92%
08:00 +13°C° 0 mm 1 mps 546 mmHg 80%
09:00 +15°C° 0 mm 1 mps 547 mmHg 68%
10:00 +19°C° 0 mm 1 mps 549 mmHg 57%
11:00 +19°C° 0 mm 2 mps 549 mmHg 51%
12:00 +20°C° 0 mm 2 mps 549 mmHg 46%
13:00 +21°C° 0 mm 2 mps 549 mmHg 40%
14:00 +20°C° 0.1 mm 2 mps 548 mmHg 45%
15:00 +19°C° 0.1 mm 2 mps 547 mmHg 49%
16:00 +19°C° 0.1 mm 2 mps 546 mmHg 54%
17:00 +16°C° 0.1 mm 1 mps 545 mmHg 67%
18:00 +14°C° 0.1 mm 1 mps 544 mmHg 80%
19:00 +11°C° 0.1 mm 1 mps 543 mmHg 93%
20:00 +11°C° 0 mm 1 mps 543 mmHg 93%
21:00 +10°C° 0 mm 1 mps 543 mmHg 93%
22:00 +10°C° 0 mm 1 mps 544 mmHg 93%
23:00 +10°C° 0 mm 1 mps 543 mmHg 91%

Tomorrow, 26 January, Tuesday

Time Temperature Precipitation Wind Pressure Humidity
00:00 +9°C° 0 mm 1 mps 543 mmHg 89%
01:00 +9°C° 0 mm 1 mps 542 mmHg 88%
02:00 +8°C° 0 mm 1 mps 542 mmHg 86%
03:00 +8°C° 0 mm 1 mps 542 mmHg 83%
04:00 +8°C° 0 mm 1 mps 541 mmHg 81%
05:00 +8°C° 0 mm 1 mps 542 mmHg 77%
06:00 +8°C° 0 mm 1 mps 543 mmHg 73%
07:00 +9°C° 0 mm 1 mps 543 mmHg 69%
08:00 +12°C° 0 mm 1 mps 545 mmHg 57%
09:00 +16°C° 0 mm 1 mps 548 mmHg 45%
10:00 +20°C° 0 mm 1 mps 550 mmHg 33%
11:00 +21°C° 0 mm 1 mps 550 mmHg 33%
12:00 +22°C° 0 mm 1 mps 549 mmHg 33%
13:00 +23°C° 0 mm 2 mps 549 mmHg 33%
14:00 +20°C° 0.1 mm 2 mps 548 mmHg 42%
15:00 +19°C° 0.1 mm 2 mps 547 mmHg 50%
16:00 +18°C° 0.1 mm 2 mps 546 mmHg 59%
17:00 +16°C° 0.2 mm 1 mps 545 mmHg 71%
18:00 +14°C° 0.2 mm 1 mps 545 mmHg 83%
19:00 +11°C° 0.2 mm 0 mps 544 mmHg 94%
20:00 +10°C° 0.1 mm 0 mps 544 mmHg 94%
21:00 +10°C° 0.1 mm 0 mps 544 mmHg 94%
22:00 +9°C° 0.1 mm 0 mps 544 mmHg 95%
23:00 +10°C° 0 mm 1 mps 544 mmHg 94%

Day after tomorrow, 27 January, Wednesday

Time Temperature Precipitation Wind Pressure Humidity
00:00 +10°C° 0 mm 1 mps 543 mmHg 94%
01:00 +9°C° 0 mm 1 mps 543 mmHg 94%
02:00 +9°C° 0 mm 1 mps 543 mmHg 93%
03:00 +9°C° 0 mm 1 mps 542 mmHg 92%
04:00 +8°C° 0 mm 1 mps 542 mmHg 91%
05:00 +9°C° 0 mm 1 mps 543 mmHg 88%
06:00 +9°C° 0 mm 1 mps 543 mmHg 84%
07:00 +9°C° 0 mm 1 mps 544 mmHg 81%
08:00 +13°C° 0 mm 1 mps 546 mmHg 67%
09:00 +16°C° 0 mm 1 mps 548 mmHg 54%
10:00 +20°C° 0 mm 1 mps 550 mmHg 40%
11:00 +21°C° 0 mm 1 mps 550 mmHg 39%
12:00 +22°C° 0 mm 1 mps 550 mmHg 37%
13:00 +23°C° 0 mm 2 mps 550 mmHg 36%
14:00 +21°C° 0.1 mm 2 mps 548 mmHg 44%
15:00 +19°C° 0.1 mm 2 mps 547 mmHg 52%
16:00 +18°C° 0.1 mm 2 mps 546 mmHg 61%
17:00 +16°C° 0.2 mm 1 mps 545 mmHg 72%
18:00 +14°C° 0.2 mm 1 mps 545 mmHg 84%
19:00 +11°C° 0.2 mm 0 mps 544 mmHg 95%
20:00 +11°C° 0.2 mm 0 mps 544 mmHg 95%
21:00 +11°C° 0.2 mm 0 mps 545 mmHg 94%
22:00 +11°C° 0.2 mm 0 mps 545 mmHg 93%
23:00 +11°C° 0.1 mm 0 mps 545 mmHg 94%

28 January, Thursday

Time Temperature Precipitation Wind Pressure Humidity
00:00 +10°C° 0.1 mm 0 mps 544 mmHg 95%
01:00 +9°C° 0.1 mm 0 mps 544 mmHg 95%
02:00 +9°C° 0 mm 0 mps 543 mmHg 95%
03:00 +8°C° 0 mm 0 mps 543 mmHg 94%
04:00 +8°C° 0 mm 0 mps 543 mmHg 94%
05:00 +8°C° 0 mm 0 mps 543 mmHg 92%
06:00 +9°C° 0 mm 0 mps 544 mmHg 90%
07:00 +9°C° 0 mm 0 mps 544 mmHg 88%
08:00 +12°C° 0 mm 0 mps 546 mmHg 76%
09:00 +16°C° 0 mm 1 mps 548 mmHg 64%
10:00 +20°C° 0 mm 1 mps 550 mmHg 52%
11:00 +21°C° 0.1 mm 1 mps 549 mmHg 50%
12:00 +21°C° 0.1 mm 1 mps 549 mmHg 48%
13:00 +20°C° 0.1 mm 2 mps 549 mmHg 47%
14:00 +19°C° 0.3 mm 2 mps 547 mmHg 55%
15:00 +18°C° 0.3 mm 2 mps 546 mmHg 63%
16:00 +17°C° 0.3 mm 2 mps 545 mmHg 71%
17:00 +16°C° 0.3 mm 1 mps 545 mmHg 79%
18:00 +14°C° 0.3 mm 1 mps 544 mmHg 87%
19:00 +12°C° 0.3 mm 1 mps 544 mmHg 95%
20:00 +12°C° 0.1 mm 1 mps 544 mmHg 95%
21:00 +11°C° 0.1 mm 1 mps 544 mmHg 96%
22:00 +10°C° 0.1 mm 0 mps 544 mmHg 96%
23:00 +10°C° 0 mm 0 mps 544 mmHg 96%

29 January, Friday

Time Temperature Precipitation Wind Pressure Humidity
00:00 +9°C° 0 mm 0 mps 543 mmHg 95%
01:00 +9°C° 0 mm 0 mps 543 mmHg 95%
02:00 +9°C° 0 mm 0 mps 543 mmHg 94%
03:00 +8°C° 0 mm 0 mps 542 mmHg 94%
04:00 +8°C° 0 mm 0 mps 542 mmHg 94%
05:00 +9°C° 0 mm 0 mps 543 mmHg 93%
06:00 +9°C° 0 mm 0 mps 543 mmHg 91%
07:00 +9°C° 0 mm 0 mps 544 mmHg 90%
08:00 +12°C° 0 mm 0 mps 546 mmHg 78%
09:00 +15°C° 0 mm 0 mps 547 mmHg 67%
10:00 +18°C° 0 mm 0 mps 549 mmHg 55%
11:00 +21°C° 0.1 mm 1 mps 549 mmHg 51%
12:00 +22°C° 0.1 mm 1 mps 549 mmHg 47%
13:00 +21°C° 0.1 mm 2 mps 549 mmHg 43%
14:00 +20°C° 0.3 mm 2 mps 548 mmHg 52%
15:00 +19°C° 0.3 mm 2 mps 546 mmHg 60%
16:00 +17°C° 0.3 mm 2 mps 545 mmHg 69%
17:00 +16°C° 0.4 mm 1 mps 545 mmHg 77%
18:00 +15°C° 0.4 mm 1 mps 544 mmHg 85%
19:00 +12°C° 0.4 mm 0 mps 544 mmHg 93%
20:00 +12°C° 0.2 mm 0 mps 544 mmHg 93%
21:00 +11°C° 0.2 mm 0 mps 544 mmHg 94%
22:00 +11°C° 0.2 mm 0 mps 545 mmHg 95%
23:00 +11°C° 0.1 mm 0 mps 544 mmHg 95%

30 January, Saturday

Time Temperature Precipitation Wind Pressure Humidity
00:00 +10°C° 0.1 mm 0 mps 544 mmHg 95%
01:00 +11°C° 0.1 mm 1 mps 544 mmHg 95%
02:00 +11°C° 0 mm 1 mps 543 mmHg 95%
03:00 +10°C° 0 mm 1 mps 543 mmHg 95%
04:00 +10°C° 0 mm 1 mps 543 mmHg 95%
05:00 +10°C° 0 mm 1 mps 543 mmHg 93%
06:00 +10°C° 0 mm 1 mps 544 mmHg 91%
07:00 +10°C° 0 mm 1 mps 544 mmHg 89%
08:00 +13°C° 0 mm 1 mps 546 mmHg 72%
09:00 +16°C° 0 mm 1 mps 548 mmHg 55%
10:00 +20°C° 0 mm 1 mps 550 mmHg 38%
11:00 +21°C° 0 mm 1 mps 550 mmHg 36%
12:00 +21°C° 0 mm 2 mps 550 mmHg 34%
13:00 +23°C° 0 mm 2 mps 549 mmHg 31%
14:00 +21°C° 0.1 mm 2 mps 548 mmHg 38%
15:00 +20°C° 0.1 mm 2 mps 547 mmHg 45%
16:00 +19°C° 0.1 mm 2 mps 546 mmHg 52%
17:00 +16°C° 0.3 mm 2 mps 545 mmHg 64%
18:00 +14°C° 0.3 mm 1 mps 544 mmHg 76%
19:00 +11°C° 0.3 mm 1 mps 543 mmHg 88%
20:00 +11°C° 0.1 mm 1 mps 543 mmHg 89%
21:00 +10°C° 0.1 mm 1 mps 543 mmHg 90%
22:00 +9°C° 0.1 mm 1 mps 543 mmHg 91%
23:00 +9°C° 0 mm 1 mps 543 mmHg 89%
Show more

We Need Your Consent

Meteoprog and our Service Providers may store and access personal data such as cookies, device identifiers or other similar technologies on your device and process such data to personalise content and ads, as well as provide social media features and to analyse the traffic.

  • Store and/or access information on your device

    Cookies, device identifiers or other information can be stored or accessed on your device for the purposes indicated above.

  • Personalised ads and content, ad and content measurement, audience insights, and products development

    Ads and content can be personalised based on a profile. More data can be added to better personalise ads and content. Ad and content performance can be measured. Insights about the audience who saw the ads and content can be derived. Such data can be used to develop or improve user’s experience, systems and software.

By clicking ‘I Agree’ you will allow the use of indicated cookies, device identifiers, web beacons or other similar technologies. Your settings can be changed in the browser on your device.

For certain purposes, legitimate interests may be relied on, rather than consent. You can read more about this in our Privacy and Cookie Policy.